#timestamp,LO_Frequency,Hit,StdDev 
1632675615.8,286046996.8,N
1632675635.7,286046999.5,N
1632675655.5,286046998.7,N
1632675675.3,286046996.5,N
1632675695.2,286046998.4,N
1632675715.0,286047000.7,N
1632675715.9,286047000.7,N
1632675735.8,286046998.3,N
1632675755.6,286047000.5,N
1632675775.4,286047002.3,N
1632675795.3,286047002.5,N
1632675815.1,286047003.8,N
1632675835.9,286047004.1,N
1632675855.7,286047001.9,N
1632675875.5,286047002.2,N
1632675895.4,286047004.4,N
1632675915.2,286047000.6,N
1632675935.0,286046999.8,N
1632675935.9,286046999.8,N
1632675955.8,286047001.5,N
1632675975.6,286047001.4,N
1632675995.5,286046999.7,N
1632676015.3,286047000.9,N
1632676035.1,286047000.0,N
1632676055.9,286047000.7,N
1632676075.7,286046998.7,N
1632676095.5,286047001.1,N
1632676115.4,286046999.9,N
1632676135.2,286046998.1,N
1632676155.1,286047001.2,N
1632676156.0,286047001.2,N
1632676175.8,286046999.9,N
1632676195.6,286046998.1,N
1632676215.5,286047001.0,N
1632676235.3,286047000.8,N
1632676255.2,286047001.1,N
1632676275.9,286046999.9,N
1632676295.7,286046999.8,N
1632676315.7,286046999.9,N
1632676335.6,286047000.8,N
1632676355.4,286046998.1,N
1632676375.2,286047000.2,N
1632676395.1,286046998.1,N
1632676396.0,286046998.1,N
1632676415.8,286046999.9,N
1632676435.7,286047000.9,N
1632676455.5,286047000.9,N
1632676475.3,286047000.1,N
1632676495.2,286046998.1,N
1632676515.0,286046998.6,N
1632676515.9,286046998.6,N
1632676535.7,286046999.3,N
1632676555.6,286046998.7,N
1632676575.4,286046999.6,N
1632676595.3,286046998.7,N
1632676615.1,286046998.8,N
1632676616.0,286046998.8,N
1632676635.8,286046999.3,N
1632676655.7,286046998.8,N
1632676675.5,286047000.6,N
1632676695.3,286046998.2,N
1632676715.2,286046998.8,N
1632676735.0,286047000.7,N
1632676735.9,286047000.7,N
1632676755.8,286047000.0,N
1632676775.6,286047001.5,N
1632676795.4,286047002.4,N
1632676815.3,286047001.5,N
1632676835.1,286047000.2,N
1632676855.9,286047000.1,N
1632676875.7,286047001.3,N
1632676895.5,286047000.7,N
1632676915.4,286047001.0,N
1632676935.2,286046998.5,N
1632676955.0,286046998.6,N
1632676955.9,286046998.6,N
1632676975.8,286046999.3,N
1632676995.6,286046999.6,N
1632677015.5,286046997.3,N
1632677035.3,286046996.8,N
1632677055.1,286046999.5,N
1632677075.9,286046999.1,N
1632677095.7,286046999.3,N
1632677115.5,286046999.1,N
1632677135.4,286046997.2,N
1632677155.2,286046998.2,N
1632677175.1,286047001.2,N
1632677176.0,286047001.2,N
1632677195.8,286046999.1,N
1632677215.6,286046998.5,N
1632677235.5,286046998.3,N
1632677255.3,286046998.6,N
1632677275.2,286046998.5,N
1632677295.9,286047000.4,N
1632677315.7,286047000.9,N
1632677335.6,286046998.1,N
1632677355.4,286046999.8,N
1632677405.3,286047000.8,E
1632677415.2,286047000.7,N
1632677435.0,286046998.6,P
1632677435.9,286046998.6,N
1632677455.8,286047000.8,N
1632677475.6,286046999.9,N
1632677495.5,286046999.7,N
1632677515.3,286047002.1,N
1632677535.1,286046999.8,N
1632677555.9,286047000.4,N
1632677575.7,286046998.1,N
1632677595.5,286046998.7,N
1632677615.4,286047001.2,N
1632677635.2,286046998.8,N
1632677655.1,286046998.9,N
1632677656.0,286046998.9,N
1632677675.8,286046997.2,N
1632677695.6,286046999.6,N
1632677715.5,286046999.2,N
1632677735.3,286046996.9,N
1632677755.2,286046997.1,N
1632677775.9,286046998.3,N
1632677795.7,286046998.6,N
1632677815.6,286046998.4,N
1632677835.4,286046997.2,N
1632677855.2,286046996.9,N
1632677875.1,286046999.6,N
1632677876.0,286046999.6,N
1632677895.8,286046996.9,N
1632677915.7,286046999.5,N
1632677935.5,286046997.8,N
1632677955.3,286046997.6,N
1632677975.2,286046999.5,N
1632677995.0,286046996.8,N
1632677995.9,286046996.8,N
1632678015.8,286046997.2,N
1632678035.6,286046995.6,Y
1632678055.4,286046997.4,P
1632678075.3,286046996.9,P
1632678095.1,286046999.2,N
1632678115.8,286046998.9,N
1632678135.7,286046998.5,N
1632678155.5,286046998.3,N
1632678175.4,286046997.7,Y
1632678195.2,286046999.4,P
1632678215.0,286046999.0,N
1632678215.9,286046999.0,N
1632678235.8,286046999.3,N
1632678255.6,286046999.0,N
1632678275.5,286046998.3,Y
1632678295.3,286047000.0,P
1632678315.1,286046998.5,P
1632678335.9,286046998.3,N
1632678355.7,286047000.2,N
1632678375.5,286047002.4,Y
1632678395.4,286047002.0,P
1632678415.2,286047003.2,N
1632678435.1,286047005.5,P
1632678436.0,286047005.5,N
1632678455.8,286047005.5,N
1632678475.6,286047003.1,N
1632678495.5,286047011.9,Y
1632678515.3,286047003.9,P
1632678535.2,286047004.2,P
1632678555.9,286047002.8,P
1632678575.7,286047000.2,N
1632678595.6,286047001.0,N
1632678615.4,286046998.2,N
1632678635.2,286047000.7,N
1632678655.1,286047001.1,N
1632678656.0,286047001.1,N
1632678675.8,286047000.7,N
1632678695.7,286047000.3,N
1632678715.5,286047000.5,N
1632678735.3,286046998.2,N
1632678755.2,286046998.8,N
1632678775.0,286046999.5,N
1632678775.9,286046999.5,N
1632678795.8,286046996.6,N
1632678815.6,286046998.8,N
1632678835.4,286046997.0,N
1632678855.3,286046999.0,N
1632678875.1,286047001.0,N
1632678895.8,286046998.2,N
1632678915.7,286047000.4,N
1632678935.5,286047001.0,N
1632678955.4,286047000.2,N
1632678975.2,286046998.2,N
1632678995.0,286046998.5,N
1632678995.9,286046998.5,N
1632679015.8,286047001.0,N
1632679035.6,286047000.8,N
1632679055.4,286047000.2,N
1632679075.3,286046999.8,N
1632679095.1,286047002.7,N
1632679115.9,286047002.3,N
1632679135.7,286047001.9,N
1632679155.5,286047001.7,N
1632679175.4,286047003.9,N
1632679195.2,286047002.0,N
